STARLINK-1655, 47623

Orbit data source: Space-Track

STARLINK-1655, 47623 is a payload satellite owned by SpaceX/Seattle (US) in LEO that was launched on Tue, 16 Feb 2021 UTC via an FALCON 9 launch vehicle from the Air Force Eastern Test Range (AFETR). Payload-class satellites include a variety of spacecraft equipped with specific instruments for various scientific and technological missions. These include communications satellites like Starlink; space stations such as the ISS; scientific satellites like the Hubble; Earth observation satellites from companies like Planet Labs, Umbra, and HawkEye 360; GPS; miniature CubeSats for education and research; and military/defense satellites.

Not visible in the next 10 days
Identifier
47623, 2021-012D
Orbit
LEO
Country
Flag of USUS
Related business
Manufacturer
SpaceX/Seattle
Mission
Partially operational Commercial Communications
Bus & Motor
STARLINK, Unknown motor
Mass
260 kg wet, ~248 kg dry
Launch date (UTC)
2021-02-16 (5 years ago)
Launch vehicle
FALCON 9
Launch site
Air Force Eastern Test Range (AFETR)
Object type
Payload
Rocket body
Debris
Shape & HBR
Box + 1 Pan, 10.1 m
Radar Cross Section
13.562 m², Large (>1 m²)

Expand to show TLE details & history
Last TLE update: 2 days ago

TLE from 2 days ago
0 STARLINK-1655
1 47623U 21012D   26171.43327520  .00595851  17788-3  91380-3 0  9992
2 47623  53.0253 171.8015 0001004  67.2548 292.8588 16.03790405297692
Epoch: 2026-06-20T10:23Z
TLE epoch observation values (Epoch: 2026-06-20T10:23:54.977Z)
Latitude
-0.00008°
Longitude
107.1744°
Altitude
264.587 km
Speed
7.75 km/s
True Right ascension
11h 27m 12s
True Declination
0° 00' 00"
Sunlit
Object was in daylight at epoch
Visualization orbit readout
Latitude
Unknown
Longitude
Unknown
Altitude
Unknown
Speed
Unknown
Apparent Right ascension
Unknown
Apparent Declination
Unknown
Sunlit
N/A
Visualization observer readout
Local Sidereal Time
21:40:24
Azimuth
Unknown
Elevation
Unknown
Doppler factor
Unknown
Orbital elements
Apogee altitude
264.886 km
Perigee altitude
263.553 km
Semi-major axis
6,642.357 km
Eccentricity
0.0001
Inclination
53.0253°
RAAN
171.8015°
Arg. of periapsis
67.2548°
True anomaly
292.8482°
Mean anomaly
292.8588°
Eccentric anomaly
292.8535°
Mean motion
4.00922 °/min
Orbital period
89.79 mins
BSTAR
0.0009138
Loading maneuver chart data...
Computing Atmospheric mass density...

Documentation

Showing up to 5 results
|